National Oceanic Atmosphere Administration National Weather Service Headquarters National Weather Service Headquarters
NOAA logo WFO Anchorage Scalable transition graphic NWS logo
Transition from title bar to navgation bar   Aviation Weather 00 AKST 
blankspace Home   |   Mobile   |   Social Media   |   Mesonet   |   Surface Map   |   Radar   |   Submit Storm Reports   |   News =09 GMT 

LocalForecast by City, St or Zip Code

spacer

Forecasts/Products
  Public
  Forecast Discussion
    - With Glossary
  Aviation
  Marine
  Hydrology(RFC)
  Rivers & Lakes AHPS
  Ice Desk
  TV Weather
  Fire Weather
  Avalanche
  Travel 511
  Graphical
  xml logo RSS Feeds
  Marine FTPMail

spacer

Data
  Mesonet
  Model Graphics
  Local Model
  Observations
  Marine Obs
  Satellite/Radar
  Vent Factor
  Soaring Index
  Weather Links

spacer

Climate
  PAFC Climate
  Interactive Climate
  PAFC Records
  Local
  National
  More

spacer

Outreach
  About Us
  Community Outreach
  Kids' Page
  Tour/Speaker Request
  Weather Classroom
  Social Media

spacer

Reports
  COOP Observers
  Local Storm Reports
  Spotter Page
  Submit a Storm Report

spacer

Miscellaneous
  Archived Alaska Weather Stories
  Student Career Opportunities
  Research Papers

spacer

Print Friendly/
Low Bandwidth

  Public Forecasts
  Marine Forecasts

spacer

Contact Us
  mailto pafcweb

spacer

Facebook Follow the National Weather Service in Alaska on Twitter
USA.gov is the U.S. government's official web portal to all federal, state and local government web resources and services.


 ICAO ID:   AAWU Graphics

Internet access to TAFs and METAR observations is for planning purposes only. We can not guarantee the timeliness of internet products. Before flying please get a formal pilot briefing (1-800-992-7433) and ALWAYS file a Flight Plan!Pilot briefings are provided to licensed aircraft pilots, ONLY! Others may not use the above number to obtain weather information.

Check out the Key to TAFs and METARs for help with decoding the information.

A 12 hour summary of TAFs can be found here.

PAMC TAF
PAMC 120532Z 1206/1306  28003KT 4SM -SN OVC040
     FM121100 00000KT 4SM BR VCSH OVC025
     FM121800 00000KT P6SM BKN050=




METAR PAMC 120853Z 00000KT 3SM -SN OVC033 M11/M14 A2959 RMK AO2 SLP031
     P0000 60002 T11111139 411111267 50001=
METAR PAMC 120753Z AUTO 00000KT 3SM -SN BR FEW026 BKN034 OVC080
 M12/M14 A2959 RMK AO2 SLP032 P0001 T11171139 TSNO=
PAMC 120744Z AUTO 00000KT 3SM -SN BR FEW026 OVC032 M12/M14 A2960=
PAMC 120726Z AUTO 00000KT 2 1/2SM -SN BR OVC034 M12/M14 A2959=
PAMC 120711Z AUTO 25003KT 3SM -SN BR OVC030 M12/M14 A2959=
METAR PAMC 120653Z AUTO 00000KT 2SM -SN OVC024 M12/M14 A2959 RMK AO2
     SLP030 P0001 T11171144 TSNO=
SPECI PAMC 120644Z AUTO 00000KT 3SM -SN BR OVC026 M12/M14 A2959 RMK AO2
     P0001 T11221144 TSNO=
PAMC 120638Z AUTO 00000KT 1 3/4SM -SN BR OVC026 M12/M14 A2959=
PAMC 120627Z AUTO 00000KT 2 1/2SM -SN BR OVC028 M12/M14 A2959=
PAMC 120612Z AUTO 00000KT 5SM -SN BR OVC034 M12/M14 A2959=
PAMC 120602Z AUTO 29003KT 2SM -SN BR BKN032 OVC045 M12/M14 A2958=
METAR PAMC 120553Z AUTO 28003KT 3SM -SN BR BKN032 OVC045 M12/M14 A2959
     RMK AO2 SLP031 P0000 60001 T11221144 11117 21139 58004
     TSNO=
PAMC 120524Z AUTO 28003KT 4SM -SN OVC042 M12/M14 A2959=
PAMC 120517Z AUTO 00000KT 2 1/2SM -SN OVC040 M12/M14 A2959=


National Weather Service
Anchorage Forecast Office
6930 Sand Lake Road
Anchorage, Ak 99502
(907) 266-5105 M-F/7-5pm
About Us
Career Opportunities
Glossary
Disclaimer
Privacy Policy
Credits
Alaska Weather Information Line:
1-800-472-0391